Location: Fauquembergues
(50.6005°N, 2.0987°E)
Time: 10:38:29
(UTC+00:00)

Cosmos 1864 Rocket - Pass Details

Date: 14 July 2020
Orbit: 951 x 997 km, 82.9° (Epoch: 06 August)

Event Time Altitude Azimuth Distance (km) Brightness Sun altitude
Exits shadow 02:02:20 15° 192° (SSW) 2,299 5.9 -12.7°
Maximum altitude 02:07:27 83° 280° (W) 966 4.5 -12.3°
Drops below altitude 10° 02:13:38 10° 9° (N) 2,693 8.0 -11.8°
Sets 02:16:08 0° 10° (N) 3,645 8.9 -11.6°
